Time,TemperatureF,DewpointF,PressureIn,WindDirection,WindDirectionDegrees,WindSpeedMPH,WindSpeedGustMPH,Humidity,HourlyPrecipIn,Conditions,Clouds,dailyrainin,SoftwareType,DateUTC
2013-09-11 00:11:00,76.9,74.0,30.10,SW,227,0.0,-999.0,89,-99.99,,,0.00,weatherlink.com 1.10,2013-09-11 04:11:00,
2013-09-11 00:26:00,77.0,74.0,30.10,SW,227,0.0,-999.0,89,-99.99,,,0.00,weatherlink.com 1.10,2013-09-11 04:26:00,
2013-09-11 00:41:00,77.2,74.0,30.09,SSE,158,0.0,-999.0,89,-99.99,,,0.00,weatherlink.com 1.10,2013-09-11 04:41:00,
2013-09-11 00:56:00,77.2,74.0,30.09,SSE,157,0.0,-999.0,89,-99.99,,,0.00,weatherlink.com 1.10,2013-09-11 04:56:00,
2013-09-11 01:11:00,77.1,73.0,30.10,ESE,109,0.0,-999.0,87,-99.99,,,0.00,weatherlink.com 1.10,2013-09-11 05:11:00,
2013-09-11 01:26:00,77.0,73.0,30.09,ESE,109,0.0,-999.0,87,-99.99,,,0.00,weatherlink.com 1.10,2013-09-11 05:26:00,
2013-09-11 01:41:00,76.4,72.0,30.10,ESE,109,0.0,-999.0,87,-99.99,,,0.00,weatherlink.com 1.10,2013-09-11 05:41:00,
2013-09-11 01:56:00,75.8,72.0,30.09,ESE,109,0.0,-999.0,88,-99.99,,,0.00,weatherlink.com 1.10,2013-09-11 05:56:00,
2013-09-11 02:11:00,75.5,72.0,30.09,ESE,109,0.0,-999.0,89,-99.99,,,0.00,weatherlink.com 1.10,2013-09-11 06:11:00,
2013-09-11 02:26:00,75.1,72.0,30.09,ESE,109,0.0,-999.0,89,-99.99,,,0.00,weatherlink.com 1.10,2013-09-11 06:26:00,
2013-09-11 02:41:00,74.8,72.0,30.08,ESE,109,0.0,-999.0,90,-99.99,,,0.00,weatherlink.com 1.10,2013-09-11 06:41:00,
2013-09-11 02:56:00,74.8,72.0,30.09,ESE,109,0.0,-999.0,92,-99.99,,,0.00,weatherlink.com 1.10,2013-09-11 06:56:00,
2013-09-11 03:07:00,74.7,72.2,30.08,ESE,105,0.0,0.0,92,0.00,,,0.00,Wunderground v.1.15,2013-09-11 07:07:00,
2013-09-11 03:17:00,74.4,71.9,30.09,ESE,105,0.0,0.0,92,0.00,,,0.00,Wunderground v.1.15,2013-09-11 07:17:00,
2013-09-11 03:22:00,74.2,71.7,30.09,ESE,105,0.0,0.0,92,0.00,,,0.00,Wunderground v.1.15,2013-09-11 07:22:00,
2013-09-11 03:27:00,74.1,71.6,30.09,ESE,105,0.0,0.0,92,0.00,,,0.00,Wunderground v.1.15,2013-09-11 07:27:00,
2013-09-11 03:32:00,74.0,71.8,30.09,ESE,105,0.0,0.0,93,0.00,,,0.00,Wunderground v.1.15,2013-09-11 07:32:00,
2013-09-11 03:37:00,73.9,71.7,30.09,ESE,105,0.0,0.0,93,0.00,,,0.00,Wunderground v.1.15,2013-09-11 07:37:00,
2013-09-11 03:47:00,73.7,71.9,30.08,ESE,105,0.0,0.0,94,0.00,,,0.00,Wunderground v.1.15,2013-09-11 07:47:00,
2013-09-11 03:52:00,73.6,71.8,30.08,ESE,105,0.0,0.0,94,0.00,,,0.00,Wunderground v.1.15,2013-09-11 07:52:00,
2013-09-11 03:57:00,73.5,71.7,30.08,ESE,105,0.0,0.0,94,0.00,,,0.00,Wunderground v.1.15,2013-09-11 07:57:00,
2013-09-11 04:07:00,73.2,71.4,30.08,ESE,105,0.0,0.0,94,0.00,,,0.00,Wunderground v.1.15,2013-09-11 08:07:00,
2013-09-11 04:12:00,73.1,71.3,30.08,ESE,105,0.0,0.0,94,0.00,,,0.00,Wunderground v.1.15,2013-09-11 08:12:00,
2013-09-11 04:17:00,73.0,71.2,30.08,ESE,105,0.0,0.0,94,0.00,,,0.00,Wunderground v.1.15,2013-09-11 08:17:00,
2013-09-11 04:22:00,72.9,71.1,30.08,ESE,105,0.0,0.0,94,0.00,,,0.00,Wunderground v.1.15,2013-09-11 08:22:00,
2013-09-11 04:27:00,72.9,71.4,30.08,ESE,105,0.0,0.0,95,0.00,,,0.00,Wunderground v.1.15,2013-09-11 08:27:00,
2013-09-11 04:32:00,72.9,71.4,30.08,ESE,105,0.0,0.0,95,0.00,,,0.00,Wunderground v.1.15,2013-09-11 08:32:00,
2013-09-11 04:37:00,72.9,71.4,30.08,ESE,105,0.0,0.0,95,0.00,,,0.00,Wunderground v.1.15,2013-09-11 08:37:00,
2013-09-11 04:42:00,72.8,71.3,30.08,ESE,105,0.0,0.0,95,0.00,,,0.00,Wunderground v.1.15,2013-09-11 08:42:00,
2013-09-11 04:52:00,72.9,71.4,30.07,ESE,105,0.0,0.0,95,0.00,,,0.00,Wunderground v.1.15,2013-09-11 08:52:00,
2013-09-11 05:02:00,72.9,71.4,30.07,ESE,105,0.0,0.0,95,0.00,,,0.00,Wunderground v.1.15,2013-09-11 09:02:00,
2013-09-11 05:07:00,72.9,71.7,30.07,ESE,105,0.0,0.0,96,0.00,,,0.00,Wunderground v.1.15,2013-09-11 09:07:00,
2013-09-11 05:12:00,72.9,71.7,30.08,ESE,105,0.0,0.0,96,0.00,,,0.00,Wunderground v.1.15,2013-09-11 09:12:00,
2013-09-11 05:17:00,72.9,71.4,30.08,ESE,105,0.0,0.0,95,0.00,,,0.00,Wunderground v.1.15,2013-09-11 09:17:00,
2013-09-11 05:22:00,72.8,71.6,30.08,ESE,105,0.0,0.0,96,0.00,,,0.00,Wunderground v.1.15,2013-09-11 09:22:00,
2013-09-11 05:27:00,72.8,71.6,30.08,ESE,105,0.0,0.0,96,0.00,,,0.00,Wunderground v.1.15,2013-09-11 09:27:00,
2013-09-11 05:32:00,72.9,71.7,30.08,ESE,105,0.0,0.0,96,0.00,,,0.00,Wunderground v.1.15,2013-09-11 09:32:00,
2013-09-11 05:41:00,72.8,72.0,30.07,ESE,109,0.0,-999.0,96,-99.99,,,0.00,weatherlink.com 1.10,2013-09-11 09:41:00,
2013-09-11 05:47:00,72.8,71.6,30.08,ESE,105,0.0,0.0,96,0.00,,,0.00,Wunderground v.1.15,2013-09-11 09:47:00,
2013-09-11 05:52:00,72.8,71.6,30.08,ESE,105,0.0,0.0,96,0.00,,,0.00,Wunderground v.1.15,2013-09-11 09:52:00,
2013-09-11 05:57:00,72.7,71.5,30.08,ESE,105,0.0,0.0,96,0.00,,,0.00,Wunderground v.1.15,2013-09-11 09:57:00,
2013-09-11 06:07:00,72.6,71.4,30.09,ESE,105,0.0,0.0,96,0.00,,,0.00,Wunderground v.1.15,2013-09-11 10:07:00,
2013-09-11 06:12:00,72.5,71.3,30.08,ESE,105,0.0,0.0,96,0.00,,,0.00,Wunderground v.1.15,2013-09-11 10:12:00,
2013-09-11 06:17:00,72.5,71.3,30.08,ESE,105,0.0,0.0,96,0.00,,,0.00,Wunderground v.1.15,2013-09-11 10:17:00,
2013-09-11 06:26:00,72.3,71.0,30.07,ESE,109,0.0,-999.0,96,-99.99,,,0.00,weatherlink.com 1.10,2013-09-11 10:26:00,
2013-09-11 06:32:00,72.4,71.2,30.09,ESE,105,0.0,0.0,96,0.00,,,0.00,Wunderground v.1.15,2013-09-11 10:32:00,
2013-09-11 06:37:00,72.4,71.2,30.09,ESE,105,0.0,0.0,96,0.00,,,0.00,Wunderground v.1.15,2013-09-11 10:37:00,
2013-09-11 06:42:00,72.4,71.2,30.09,ESE,105,0.0,0.0,96,0.00,,,0.00,Wunderground v.1.15,2013-09-11 10:42:00,
2013-09-11 06:47:00,72.4,71.5,30.09,ESE,105,0.0,0.0,97,0.00,,,0.00,Wunderground v.1.15,2013-09-11 10:47:00,
2013-09-11 06:52:00,72.5,71.6,30.09,ESE,105,0.0,0.0,97,0.00,,,0.00,Wunderground v.1.15,2013-09-11 10:52:00,
2013-09-11 06:57:00,72.6,71.7,30.09,ESE,105,0.0,0.0,97,0.00,,,0.00,Wunderground v.1.15,2013-09-11 10:57:00,
2013-09-11 07:02:00,72.7,71.8,30.10,ESE,105,0.0,0.0,97,0.00,,,0.00,Wunderground v.1.15,2013-09-11 11:02:00,
2013-09-11 07:11:00,72.9,72.0,30.09,ESE,109,0.0,-999.0,97,-99.99,,,0.00,weatherlink.com 1.10,2013-09-11 11:11:00,
2013-09-11 07:17:00,73.2,72.3,30.10,ESE,105,0.0,0.0,97,0.00,,,0.00,Wunderground v.1.15,2013-09-11 11:17:00,
2013-09-11 07:22:00,73.4,72.5,30.10,ESE,105,0.0,0.0,97,0.00,,,0.00,Wunderground v.1.15,2013-09-11 11:22:00,
2013-09-11 07:27:00,73.5,72.6,30.10,ESE,105,0.0,0.0,97,0.00,,,0.00,Wunderground v.1.15,2013-09-11 11:27:00,
2013-09-11 07:32:00,73.7,72.8,30.10,ESE,105,0.0,0.0,97,0.00,,,0.00,Wunderground v.1.15,2013-09-11 11:32:00,
2013-09-11 07:37:00,73.9,73.0,30.10,ESE,105,0.0,0.0,97,0.00,,,0.00,Wunderground v.1.15,2013-09-11 11:37:00,
2013-09-11 07:47:00,74.3,73.4,30.10,ESE,105,0.0,0.0,97,0.00,,,0.00,Wunderground v.1.15,2013-09-11 11:47:00,
2013-09-11 07:52:00,74.5,73.6,30.10,ESE,105,0.0,0.0,97,0.00,,,0.00,Wunderground v.1.15,2013-09-11 11:52:00,
2013-09-11 07:57:00,74.6,73.7,30.10,ESE,105,0.0,0.0,97,0.00,,,0.00,Wunderground v.1.15,2013-09-11 11:57:00,
2013-09-11 08:07:00,75.1,74.2,30.10,SE,129,0.0,0.0,97,0.00,,,0.00,Wunderground v.1.15,2013-09-11 12:07:00,
2013-09-11 08:12:00,75.5,74.6,30.10,East,90,0.0,0.0,97,0.00,,,0.00,Wunderground v.1.15,2013-09-11 12:12:00,
2013-09-11 08:22:00,76.2,75.0,30.10,East,92,0.0,0.0,96,0.00,,,0.00,Wunderground v.1.15,2013-09-11 12:22:00,
2013-09-11 08:27:00,76.5,75.3,30.11,West,260,0.0,0.0,96,0.00,,,0.00,Wunderground v.1.15,2013-09-11 12:27:00,
2013-09-11 08:32:00,76.9,75.4,30.11,SE,131,0.0,0.0,95,0.00,,,0.00,Wunderground v.1.15,2013-09-11 12:32:00,
2013-09-11 08:37:00,77.1,75.2,30.11,SSE,150,0.0,0.0,94,0.00,,,0.00,Wunderground v.1.15,2013-09-11 12:37:00,
2013-09-11 08:42:00,77.3,75.4,30.11,ESE,109,0.0,0.0,94,0.00,,,0.00,Wunderground v.1.15,2013-09-11 12:42:00,
2013-09-11 08:57:00,77.6,75.0,30.10,SW,227,0.0,-999.0,92,-99.99,,,0.00,weatherlink.com 1.10,2013-09-11 12:57:00,
2013-09-11 09:12:00,78.0,76.0,30.10,SE,133,0.0,-999.0,92,-99.99,,,0.00,weatherlink.com 1.10,2013-09-11 13:12:00,
2013-09-11 09:27:00,79.8,77.0,30.10,ESE,103,1.0,-999.0,91,-99.99,,,0.00,weatherlink.com 1.10,2013-09-11 13:27:00,
2013-09-11 09:42:00,82.7,75.0,30.11,ESE,106,1.0,-999.0,78,-99.99,,,0.00,weatherlink.com 1.10,2013-09-11 13:42:00,
2013-09-11 09:57:00,85.0,76.0,30.11,WSW,248,3.0,-999.0,75,-99.99,,,0.00,weatherlink.com 1.10,2013-09-11 13:57:00,
2013-09-11 10:12:00,85.4,77.0,30.11,West,269,1.0,-999.0,75,-99.99,,,0.00,weatherlink.com 1.10,2013-09-11 14:12:00,
2013-09-11 10:27:00,86.1,77.0,30.11,SE,134,1.0,-999.0,74,-99.99,,,0.00,weatherlink.com 1.10,2013-09-11 14:27:00,
2013-09-11 10:42:00,86.1,76.0,30.11,ESE,105,1.0,-999.0,71,-99.99,,,0.00,weatherlink.com 1.10,2013-09-11 14:42:00,
2013-09-11 10:57:00,85.3,75.0,30.12,SSW,200,0.0,-999.0,72,-99.99,,,0.00,weatherlink.com 1.10,2013-09-11 14:57:00,
2013-09-11 11:12:00,83.6,76.0,30.12,SW,226,0.0,-999.0,78,-99.99,,,0.00,weatherlink.com 1.10,2013-09-11 15:12:00,
2013-09-11 11:27:00,84.1,77.0,30.12,ESE,111,2.0,-999.0,79,-99.99,,,0.00,weatherlink.com 1.10,2013-09-11 15:27:00,
2013-09-11 11:42:00,84.7,77.0,30.11,SE,134,2.0,-999.0,78,-99.99,,,0.00,weatherlink.com 1.10,2013-09-11 15:42:00,
2013-09-11 11:57:00,85.9,77.0,30.11,SE,133,2.0,-999.0,74,-99.99,,,0.00,weatherlink.com 1.10,2013-09-11 15:57:00,
2013-09-11 12:12:00,85.9,77.0,30.11,ESE,123,2.0,-999.0,74,-99.99,,,0.00,weatherlink.com 1.10,2013-09-11 16:12:00,
2013-09-11 12:27:00,85.1,76.0,30.10,SE,134,5.0,-999.0,73,-99.99,,,0.00,weatherlink.com 1.10,2013-09-11 16:27:00,
2013-09-11 12:42:00,86.4,77.0,30.10,WSW,253,1.0,-999.0,74,-99.99,,,0.00,weatherlink.com 1.10,2013-09-11 16:42:00,
2013-09-11 12:57:00,87.1,76.0,30.10,ESE,112,5.0,-999.0,69,-99.99,,,0.00,weatherlink.com 1.10,2013-09-11 16:57:00,
2013-09-11 13:11:00,86.1,73.0,30.10,WSW,251,1.0,-999.0,66,-99.99,,,0.00,weatherlink.com 1.10,2013-09-11 17:11:00,
2013-09-11 13:27:00,75.8,70.0,30.12,WSW,256,0.0,-999.0,83,-99.99,,,0.46,weatherlink.com 1.10,2013-09-11 17:27:00,
2013-09-11 13:42:00,74.2,72.0,30.10,WSW,256,0.0,-999.0,92,-99.99,,,0.46,weatherlink.com 1.10,2013-09-11 17:42:00,
2013-09-11 13:57:00,75.8,75.0,30.09,WSW,254,0.0,-999.0,96,-99.99,,,0.47,weatherlink.com 1.10,2013-09-11 17:57:00,
2013-09-11 14:12:00,79.0,78.0,30.09,ESE,123,1.0,-999.0,97,-99.99,,,0.47,weatherlink.com 1.10,2013-09-11 18:12:00,
2013-09-11 14:42:00,83.2,78.0,30.09,South,176,3.0,-999.0,84,-99.99,,,0.47,weatherlink.com 1.10,2013-09-11 18:42:00,
2013-09-11 14:57:00,83.7,77.0,30.08,SSE,151,2.0,-999.0,80,-99.99,,,0.47,weatherlink.com 1.10,2013-09-11 18:57:00,
2013-09-11 15:12:00,84.1,77.0,30.07,West,273,0.0,-999.0,80,-99.99,,,0.47,weatherlink.com 1.10,2013-09-11 19:12:00,
2013-09-11 15:27:00,84.1,77.0,30.07,South,188,0.0,-999.0,80,-99.99,,,0.47,weatherlink.com 1.10,2013-09-11 19:27:00,
2013-09-11 15:42:00,84.0,78.0,30.07,SE,141,1.0,-999.0,83,-99.99,,,0.47,weatherlink.com 1.10,2013-09-11 19:42:00,
2013-09-11 15:57:00,83.6,78.0,30.06,South,182,1.0,-999.0,82,-99.99,,,0.47,weatherlink.com 1.10,2013-09-11 19:57:00,
2013-09-11 16:12:00,83.5,78.0,30.06,SW,227,0.0,-999.0,82,-99.99,,,0.47,weatherlink.com 1.10,2013-09-11 20:12:00,
2013-09-11 16:27:00,83.4,76.0,30.05,SE,141,3.0,-999.0,79,-99.99,,,0.47,weatherlink.com 1.10,2013-09-11 20:27:00,
2013-09-11 16:42:00,83.6,77.0,30.05,SSW,210,0.0,-999.0,81,-99.99,,,0.47,weatherlink.com 1.10,2013-09-11 20:42:00,
2013-09-11 16:57:00,83.4,77.0,30.05,South,183,5.0,-999.0,80,-99.99,,,0.47,weatherlink.com 1.10,2013-09-11 20:57:00,
2013-09-11 17:13:00,83.1,76.0,30.04,SE,130,2.0,-999.0,78,-99.99,,,0.47,weatherlink.com 1.10,2013-09-11 21:13:00,
2013-09-11 17:28:00,83.1,76.0,30.04,SSE,159,0.0,-999.0,80,-99.99,,,0.47,weatherlink.com 1.10,2013-09-11 21:28:00,
2013-09-11 17:43:00,83.4,77.0,30.04,ESE,120,3.0,-999.0,80,-99.99,,,0.47,weatherlink.com 1.10,2013-09-11 21:43:00,
2013-09-11 17:58:00,83.0,76.0,30.04,SE,125,2.0,-999.0,79,-99.99,,,0.47,weatherlink.com 1.10,2013-09-11 21:58:00,
2013-09-11 18:12:00,82.5,76.0,30.03,SSW,194,0.0,-999.0,80,-99.99,,,0.47,weatherlink.com 1.10,2013-09-11 22:12:00,
2013-09-11 18:27:00,82.1,76.0,30.04,NW,321,1.0,-999.0,81,-99.99,,,0.47,weatherlink.com 1.10,2013-09-11 22:27:00,
2013-09-11 18:42:00,81.2,75.0,30.04,NNE,24,0.0,-999.0,81,-99.99,,,0.47,weatherlink.com 1.10,2013-09-11 22:42:00,
2013-09-11 18:57:00,80.4,75.0,30.04,NNW,348,0.0,-999.0,84,-99.99,,,0.47,weatherlink.com 1.10,2013-09-11 22:57:00,
2013-09-11 19:12:00,79.7,75.0,30.03,ESE,114,0.0,-999.0,86,-99.99,,,0.47,weatherlink.com 1.10,2013-09-11 23:12:00,
2013-09-11 19:27:00,79.1,75.0,30.04,South,190,0.0,-999.0,87,-99.99,,,0.47,weatherlink.com 1.10,2013-09-11 23:27:00,
2013-09-11 19:42:00,78.9,75.0,30.04,SSE,150,0.0,-999.0,88,-99.99,,,0.47,weatherlink.com 1.10,2013-09-11 23:42:00,
2013-09-11 19:57:00,79.0,75.0,30.04,SSE,159,0.0,-999.0,86,-99.99,,,0.47,weatherlink.com 1.10,2013-09-11 23:57:00,
2013-09-11 20:12:00,79.4,75.0,30.04,ESE,119,0.0,-999.0,87,-99.99,,,0.47,weatherlink.com 1.10,2013-09-12 00:12:00,
2013-09-11 20:27:00,79.3,75.0,30.04,WSW,237,0.0,-999.0,86,-99.99,,,0.47,weatherlink.com 1.10,2013-09-12 00:27:00,
2013-09-11 20:42:00,79.1,75.0,30.04,ESE,103,0.0,-999.0,86,-99.99,,,0.47,weatherlink.com 1.10,2013-09-12 00:42:00,
2013-09-11 20:57:00,79.1,75.0,30.04,SW,222,0.0,-999.0,86,-99.99,,,0.47,weatherlink.com 1.10,2013-09-12 00:57:00,
2013-09-11 21:12:00,78.4,74.0,30.04,SW,223,0.0,-999.0,87,-99.99,,,0.47,weatherlink.com 1.10,2013-09-12 01:12:00,
2013-09-11 21:27:00,77.9,75.0,30.04,SW,223,0.0,-999.0,89,-99.99,,,0.47,weatherlink.com 1.10,2013-09-12 01:27:00,
2013-09-11 21:42:00,77.7,75.0,30.04,ESE,123,0.0,-999.0,90,-99.99,,,0.47,weatherlink.com 1.10,2013-09-12 01:42:00,
2013-09-11 21:57:00,77.7,75.0,30.04,ESE,117,1.0,-999.0,92,-99.99,,,0.47,weatherlink.com 1.10,2013-09-12 01:57:00,
2013-09-11 22:12:00,78.2,75.0,30.05,SSE,156,0.0,-999.0,91,-99.99,,,0.47,weatherlink.com 1.10,2013-09-12 02:12:00,
2013-09-11 22:27:00,77.7,75.0,30.05,ESE,113,0.0,-999.0,91,-99.99,,,0.47,weatherlink.com 1.10,2013-09-12 02:27:00,
2013-09-11 22:42:00,77.5,75.0,30.05,SE,135,0.0,-999.0,92,-99.99,,,0.47,weatherlink.com 1.10,2013-09-12 02:42:00,
2013-09-11 22:57:00,77.1,74.0,30.05,West,259,0.0,-999.0,91,-99.99,,,0.47,weatherlink.com 1.10,2013-09-12 02:57:00,
2013-09-11 23:12:00,76.9,75.0,30.05,West,260,0.0,-999.0,92,-99.99,,,0.47,weatherlink.com 1.10,2013-09-12 03:12:00,
2013-09-11 23:27:00,76.6,74.0,30.04,East,96,0.0,-999.0,92,-99.99,,,0.47,weatherlink.com 1.10,2013-09-12 03:27:00,
2013-09-11 23:42:00,76.6,75.0,30.04,SSW,210,0.0,-999.0,93,-99.99,,,0.47,weatherlink.com 1.10,2013-09-12 03:42:00,
2013-09-11 23:57:00,76.3,74.0,30.04,SSW,210,0.0,-999.0,93,-99.99,,,0.47,weatherlink.com 1.10,2013-09-12 03:57:00,